This demonstration page uses our WeatherBlox Daily Observations layout. Learn more.

Left ArrowRight Arrow

Hourly Observations for January 23, 2017

Temp ( °F °C ) Dew Point ( °F °C ) Humidity (%) Winds ( mph kmh ) Pressure ( in mb ) Visibility ( mi km ) Precip ( " mm )
12:01 am 00:01 Partly Cloudy with Mist and Fog 25 -4 25 -4 100 100 Calm 29.97 1015 3 4 0.00 0.00
12:04 am 00:04 Partly Cloudy with Mist and Fog 25 -4 25 -4 100 100 VRB 3 6 29.94 1014 3 5 0.00 0.00
12:10 am 00:10 Mostly Cloudy 27 -3 27 -3 100 100 NNE 5 7 29.94 1014 7 11 0.00 0.00
12:58 am 00:58 Cloudy 31 -0.6 31 -0.6 100 100 NNW 7 11 29.95 1014 9 14 0.00 0.00
1:46 am 01:46 Cloudy 32 0 32 0 100 100 NNW 8 13 29.97 1015 10 16 0.00 0.00
1:55 am 01:55 Cloudy 32 0 32 0 100 100 NNW 7 11 29.97 1015 10 16 0.00 0.00
1:58 am 01:58 Cloudy 31 -0.6 31 -0.6 100 100 NNW 8 13 29.95 1014 10 16 0.00 0.00
2:58 am 02:58 Cloudy 31 -0.4 31 -0.4 100 100 WNW 6 9 29.96 1015 10 16 0.00 0.00
3:58 am 03:58 Cloudy 32 -0.1 32 -0.2 99 99 NNW 9 15 29.95 1014 10 16 0.00 0.00
4:58 am 04:58 Cloudy 32 -0.1 32 -0.2 99 99 NNW 5 7 29.94 1014 10 16 0.00 0.00
5:58 am 05:58 Cloudy 32 -0.2 31 -0.3 99 99 NNW 7 11 29.93 1014 10 16 0.00 0.00
6:58 am 06:58 Cloudy 32 -0.1 31 -0.3 99 99 NNW 3 6 29.93 1014 10 16 0.00 0.00
7:58 am 07:58 Cloudy 31 -0.3 31 -0.4 99 99 WNW 6 9 29.94 1014 10 16 0.00 0.00
8:58 am 08:58 Cloudy 32 0.1 32 0 99 99 NW 5 7 29.93 1014 10 16 0.00 0.00
9:58 am 09:58 Cloudy 33 0.7 32 0.1 96 96 Calm 29.95 1014 10 16 0.00 0.00
10:58 am 10:58 Cloudy 33 0.8 31 -0.3 92 92 WSW 3 6 29.96 1014 10 16 0.00 0.00
11:58 am 11:58 Cloudy 35 1.4 31 -0.3 89 89 ENE 5 7 29.93 1013 10 16 0.00 0.00
12:58 pm 12:58 Cloudy 36 2.2 32 -0.2 84 84 VRB 3 6 29.89 1012 10 16 0.00 0.00
1:58 pm 13:58 Cloudy 36 2 32 0 87 87 SE 3 6 29.88 1012 10 16 0.00 0.00
2:16 pm 14:16 Cloudy 36 2 32 0 87 87 SSE 7 11 29.85 1011 10 16 0.00 0.00
2:35 pm 14:35 Mostly Cloudy 36 2 32 0 87 87 SE 6 9 29.85 1011 10 16 0.00 0.00
2:38 pm 14:38 Mostly Cloudy 36 2 32 0 87 87 SE 7 11 29.85 1011 10 16 0.00 0.00
2:44 pm 14:44 Mostly Cloudy 36 2 32 0 87 87 SE 6 9 29.85 1011 10 16 0.00 0.00
2:58 pm 14:58 Mostly Cloudy 36 2.1 33 0.5 89 89 ESE 6 9 29.86 1011 10 16 0.00 0.00
3:24 pm 15:24 Partly Cloudy 36 2 32 0 87 87 E 5 7 29.83 1010 10 16 0.00 0.00
3:58 pm 15:58 Mostly Cloudy 35 1.9 33 0.7 92 92 ESE 5 7 29.85 1011 10 16 0.00 0.00
4:01 pm 16:01 Mostly Cloudy 36 2 32 0 87 87 ESE 6 9 29.83 1010 10 16 0.00 0.00
4:38 pm 16:38 Mostly Cloudy 36 2 32 0 87 87 ENE 8 13 29.83 1010 10 16 0.00 0.00
4:56 pm 16:56 Cloudy 32 0 32 0 100 100 E 8 13 29.83 1010 10 16 0.00 0.00
4:58 pm 16:58 Cloudy 32 0 32 0 100 100 E 8 13 29.85 1011 10 16 0.00 0.00
5:58 pm 17:58 Mostly Cloudy 32 0.2 32 0.1 99 99 E 9 15 29.84 1011 10 16 0.00 0.00
6:58 pm 18:58 Mostly Cloudy 32 0.2 32 0.1 99 99 ESE 7 11 29.87 1012 10 16 0.00 0.00
7:58 pm 19:58 Cloudy 33 0.3 32 0.2 99 99 E 9 15 29.87 1012 10 16 0.00 0.00
8:58 pm 20:58 Cloudy 32 0.1 32 0 99 99 ESE 8 13 29.87 1012 10 16 0.00 0.00
9:37 pm 21:37 Cloudy 32 0 32 0 100 100 ESE 9 15 29.85 1011 10 16 0.00 0.00
9:58 pm 21:58 Cloudy 32 -0.2 32 -0.2 100 100 E 8 13 29.87 1012 10 16 0.00 0.00
10:26 pm 22:26 Partly Cloudy 30 -1 30 -1 100 100 E 7 11 29.88 1012 10 16 0.00 0.00
10:58 pm 22:58 Clear 28 -2.1 28 -2.1 100 100 E 5 7 29.88 1012 10 16 0.00 0.00
11:58 pm 23:58 Clear 27 -2.7 27 -2.7 100 100 ENE 7 11 29.85 1011 10 16 0.00 0.00

Powered by AerisWeather